Regional Weather Roundup
Issued by NWS

Home | Current Version | Previous Version | Graphics & Text | Print | Product List | Glossary On
Versions: 1 2 3 4 5 6 7 8 9 10 11 12 13 14 15 16 17 18 19 20 21 22 23 24 25 26 27 28 29 30 31 32 33 34 35 36 37 38 39 40 41 42 43 44 45 46 47 48 49 50
000
ASUS43 KDMX 051507
RWRIA

WEATHER ROUNDUP FOR IOWA
NATIONAL WEATHER SERVICE DES MOINES IA
1000 AM CDT SUN JUL 05 2015

NOTE: "FAIR" INDICATES FEW OR NO CLOUDS BELOW 12,000 FEET WITH NO
SIGNIFICANT WEATHER AND/OR OBSTRUCTIONS TO VISIBILITY.

* - THESE STATIONS ARE NOT NWS STATIONS...THUS NOT UNDER NWS
QUALITY CONTROL.  THEY ALSO DO NOT REPORT WEATHER SUCH
AS PRECIPITATION OR FOG.

IAZ001>003-012>014-020>022-031>034-043>046-051600-
   NORTHWEST IOWA

CITY           SKY/WX    TMP DP  RH WIND       PRES   REMARKS
CARROLL *      SUNNY     73  66  78 S13       29.98R
CHEROKEE *     CLOUDY    72  66  83 S12       29.94F
DENISON *      SUNNY     72  66  83 VRB6G13   29.95F
LE MARS *      SUNNY     72  66  83 S13       29.91S
ORANGE CITY *  SUNNY     70  64  83 S9        29.91F
SHELDON *      SUNNY     70  70 100 S10G16    29.89F
SIOUX CITY     LGT RAIN  70  65  84 S14       29.90F
SPENCER        CLOUDY    71  63  75 S8        29.94F
STORM LAKE *   SUNNY     72  66  83 SW14      29.97F
$$

IAZ055>058-069>071-079>083-090>094-051600-
   SOUTHWEST IOWA

CITY           SKY/WX    TMP DP  RH WIND       PRES   REMARKS
ATLANTIC *     SUNNY     75  68  78 S10       29.97S
AUDUBON *      SUNNY     75  68  78 S9        29.99S
CLARINDA *     SUNNY     77  70  78 S12       29.98F
COUNCIL BLFS * SUNNY     70  66  88 SE9       29.96S FOG
CRESTON *      SUNNY     75  68  78 S13G18    30.00S
HARLAN  *      MOSUNNY   73  73 100 S9        30.01R
LAMONI         PTSUNNY   76  69  79 S8        30.01S
RED OAK *      SUNNY     75  68  78 S12       29.96F
SHENANDOAH *   SUNNY     73  68  83 SE7G14    29.96F
$$

IAZ047>049-059>061-072>074-084-051600-
   CENTRAL IOWA

CITY           SKY/WX    TMP DP  RH WIND       PRES   REMARKS
AMES           CLOUDY    74  65  73 S10       30.00S
ANKENY *       SUNNY     75  68  78 S7        30.00S
CHARITON *     SUNNY     75  68  78 MISG      30.01F
DES MOINES     CLOUDY    75  66  73 S7        30.00R
GRINNELL*      MOSUNNY   75  66  73 S8        30.04R
KNOXVILLE *    SUNNY     77  66  69 S8        30.00F
MARSHALLTOWN   MOSUNNY   75  66  73 S12       30.02R
PELLA *        MOSUNNY   79  70  73 S8        30.03S HX  81
PERRY *          N/A     73  66  78 S8        29.99S
$$

IAZ004>006-015-016-023>025-035-036-051600-
   NORTH CENTRAL IOWA

CITY           SKY/WX    TMP DP  RH WIND       PRES   REMARKS
ALGONA *       SUNNY     72  64  78 S13       29.97F
CLARION *      SUNNY     73  64  73 S13       29.99F
ESTHERVILLE    CLOUDY    69  63  81 S12       29.94F
FORT DODGE *   CLOUDY    73  64  73 S10       29.99F
MASON CITY     PTSUNNY   76  66  71 S10       30.01S
FOREST CITY *  SUNNY     73  63  68 S13       29.99F
IOWA FALLS *     N/A     75  66  73 S10       30.02S
$$

IAZ007>011-017>019-026>030-037>042-050>054-066-051600-
   NORTHEAST IOWA

CITY           SKY/WX    TMP DP  RH WIND       PRES   REMARKS
CEDAR RAPIDS   SUNNY     73  67  81 S7        30.04S HAZE
CHARLES CITY * SUNNY     73  68  83 S9        30.03S
CLINTON *      SUNNY     73  64  73 S5        30.10R
DECORAH *        N/A    N/A N/A N/A MISG        N/A
DUBUQUE        SUNNY     74  64  71 SW13      30.06S
MONTICELLO *   SUNNY     75  68  78 S9        30.04F
OELWEIN *      SUNNY     75  66  73 S10       30.03F
WATERLOO       PTSUNNY   76  66  71 S14       30.01S
$$

IAZ064-065-067-068-078-051600-
   EAST CENTRAL IOWA

CITY           SKY/WX    TMP DP  RH WIND       PRES   REMARKS
DAVENPORT      SUNNY     75  64  68 S7        30.07S
IOWA CITY      SUNNY     74  67  78 S6        30.04F
MT. PLEASANT * SUNNY     79  63  57 S8        30.05S HX  80
MUSCATINE *    SUNNY     77  66  69 S6        30.05F
QUAD CITIES    SUNNY     76  64  66 SW7       30.06S
$$

IAZ062-063-075>077-085>089-095>099-051600-
   SOUTHEAST IOWA

CITY           SKY/WX    TMP DP  RH WIND       PRES   REMARKS
BURLINGTON     SUNNY     75  66  73 S8        30.06R
FAIRFIELD *    SUNNY     75  66  73 S8G14     30.05R
FORT MADISON * SUNNY     75  66  73 SE3       30.06F
KEOKUK *       SUNNY     77  68  73 S7        30.04F
OSKALOOSA *      N/A     75  66  73 S7        30.04R
CENTERVILLE *  SUNNY     75  68  78 S9        30.04S
OTTUMWA        MOSUNNY   75  68  78 S9        30.02S
WASHINGTON *   SUNNY     75  68  78 S10       30.06S
$$

ABBREVIATIONS USED IN REMARKS
   TC - TEMPERATURES IN CELSIUS
  WCI - WIND CHILL INDEX
   HX - HEAT INDEX
  VSB - VISIBILITY
$$



USA.gov is the U.S. government's official web portal to all federal, state and local government web resources and services.